Regional Weather Roundup
Issued by NWS

Home | Current Version | Previous Version | Graphics & Text | Print | Product List | Glossary On
Versions: 1 2 3 4 5 6 7 8 9 10 11 12 13 14 15 16 17 18 19 20 21 22 23 24 25 26 27 28 29 30 31 32 33 34 35 36 37 38 39 40 41 42 43 44 45 46 47 48 49 50
000
ASUS44 KMEG 021600
RWRTN
TENNESSEE HOURLY STATE WEATHER ROUNDUP
NATIONAL WEATHER SERVICE MEMPHIS TN
1100 AM CDT THU JUL 02 2015

TNZ002-004-019-021-049-052-054-088>092-021700-
WEST TENNESSEE

CITY           SKY/WX    TMP DP  RH WIND       PRES   REMARKS
MEMPHIS INTL   CLOUDY    79  68  69 SW10G29   29.92S
NWS MEMPHIS      N/A     79 N/A N/A MISG        N/A
JACKSON        PTSUNNY   79  71  76 SW10      29.92S
DYERSBURG        N/A    N/A N/A N/A MISG        N/A
PARIS          MOSUNNY   81  73  78 S6        29.90F
LEXINGTON      CLOUDY    79  72  78 S7        29.91S
$$

TNZ008-025-027-028-033-062-065-066-021700-
NORTH MIDDLE TENNESSEE

CITY           SKY/WX    TMP DP  RH WIND       PRES   REMARKS
NASHVILLE      CLOUDY    74  72  93 S10       29.94F
CLARKSVILLE    MOSUNNY   76  71  85 S8        29.90S
SMYRNA         CLOUDY    73  72  94 S12       29.95F
COOKEVILLE     PTSUNNY   72  70  94 S14G32    29.98S
CROSSVILLE     LGT RAIN  70  65  84 CALM      30.02R
$$

TNZ061-075-076-078-094-096-097-021700-
SOUTH MIDDLE TENNESSEE

CITY           SKY/WX    TMP DP  RH WIND       PRES   REMARKS
FAYETTEVILLE   CLOUDY    73  72  94 W6        29.98R
TULLAHOMA      CLOUDY    72  66  83 CALM      30.00S
WINCHESTER     PTSUNNY   72  68  88 N5        30.00R
COLUMBIA       PTSUNNY   75  72  88 SE6       29.94F
SHELBYVILLE    CLOUDY    72  72 100 E3        29.99S
$$

TNZ017-018-042-046-047-021700-
NORTHEAST TENNESSEE

CITY           SKY/WX    TMP DP  RH WIND       PRES   REMARKS
TRI CITIES     LGT RAIN  69  67  93 SW9       30.00S FOG
ELIZABETHTON   LGT RAIN  66  64  94 W5        30.01S FOG
$$

TNZ012-013-036-069-073-074-021700-
CENTRAL EAST TENNESSEE

CITY           SKY/WX    TMP DP  RH WIND       PRES   REMARKS
KNOXVILLE      CLOUDY    68  66  93 S8        29.98F
OAK RIDGE      LGT RAIN  70  68  93 S5        29.99S
GATLINBURG     CLOUDY    68  66  94 S5        29.97F
$$

TNZ083-085-099-021700-
SOUTHEAST TENNESSEE

CITY           SKY/WX    TMP DP  RH WIND       PRES   REMARKS
CHATTANOOGA    TSTM      73  70  90 N9        30.00R FOG
$$

SKY/WX REPORTED AS FAIR MEANS FEW OR NO CLOUDS BELOW
12 THOUSAND FEET.



USA.gov is the U.S. government's official web portal to all federal, state and local government web resources and services.